Location: Peebles
(55.6412°N, 3.1714°W)
Time: 09:55:34
(UTC+00:00)

COSMOS 2251 DEB - Pass Details

Date: 30 November 2022
Orbit: 738 x 761 km, 74.0° (Epoch: 29 January)

Event Time Altitude Azimuth Distance (km) Brightness Sun altitude
Exits shadow 05:30:48 19° 345° (NNW) 1,730 ? -22.0°
Drops below altitude 10° 05:33:16 10° 12° (NNE) 2,260 ? -21.6°
Sets 05:36:12 0° 29° (NNE) 3,187 ? -21.2°
